Regional Weather Roundup
Issued by NWS Sioux Falls, SD

Home | Current Version | Previous Version | Text Only | Print | Product List | Glossary Off
Versions: 1 2 3 4 5 6 7 8 9 10 11 12 13 14 15 16 17 18 19 20 21 22 23 24 25 26 27 28 29 30 31 32 33 34 35 36 37 38 39 40 41 42 43 44 45 46 47 48 49 50

000
ASUS43 KFSD 060710
RWRFSD

WEATHER ROUNDUP FOR SE SOUTH DAKOTA/SW MINNESOTA/NW IOWA
NATIONAL WEATHER SERVICE SIOUX FALLS SD
100 AM CST FRI MAR 06 2015

NOTE: "FAIR" INDICATES FEW OR NO CLOUDS BELOW 12,000 FEET WITH NO
SIGNIFICANT WEATHER AND OR OBSTRUCTIONS TO VISIBILITY.


SDZ038>040-050-052>070-060800-
SOUTHEAST SOUTH DAKOTA

CITY           SKY/WX    TMP DP  RH WIND       PRES   REMARKS
CHAMBERLAIN    CLEAR     27  19  72 W8        30.11F WCI  18
HURON          CLEAR     18   7  62 S6        30.09F WCI  10
MADISON        FAIR      18   9  68 S14       30.09F WCI   4
MITCHELL       CLEAR     17   8  67 S3        30.11F
SIOUX FALLS    CLEAR     22   8  55 S13       30.12F WCI  10
WINNER         FAIR      32  17  54 SW8       30.13S WCI  25
YANKTON        CLEAR     30   9  40 S13       30.14F WCI  20
$$

MNZ071-072-080-081-089-090-097-098-060800-
SOUTHWEST MINNESOTA

CITY           SKY/WX    TMP DP  RH WIND       PRES   REMARKS
FAIRMONT       CLEAR     12   3  67 S16       30.19F WCI  -4
JACKSON        CLEAR     18   5  57 S16       30.17F WCI   3
LUVERNE        CLEAR     14   9  79 S6        30.15F WCI   5
MARSHALL       CLEAR     19   7  58 SW25      30.11F WCI   2
MONTEVIDEO     FAIR      14   7  73 S7        30.11F WCI   4
PIPESTONE      CLEAR     16   9  73 S13       30.10F WCI   2
REDWOOD FALLS  CLEAR     13   5  70 S12       30.15F WCI  -1
TRACY          CLEAR     21   9  61 S22G28    30.11F WCI   5
WINDOM         CLEAR     18   7  62 S14       30.14F WCI   4
WORTHINGTON    CLEAR     16   5  62 S20       30.16F WCI  -1
$$

IAZ001>003-012>014-020>022-031-032-NEZ013-014-SDZ071-060800-
NORTHWEST IOWA

CITY           SKY/WX    TMP DP  RH WIND       PRES   REMARKS
CHEROKEE       PTCLDY    20   9  61 S10       30.21F WCI   9
DENISON        CLOUDY    23   9  54 S14G22    30.23F WCI  11
ESTHERVILLE    CLEAR     12   5  73 S20       30.20F WCI  -6
LE MARS        PTCLDY    21   9  58 S13       30.19F WCI   9
ORANGE CITY    CLEAR     21   9  58 S12       30.17F WCI   9
SHELDON        CLEAR     18   7  62 S14       30.16F WCI   4
SIOUX CITY     CLOUDY    25  10  53 SE9       30.21F WCI  15
SPENCER        CLEAR     16   5  62 S14       30.20F WCI   2
STORM LAKE     CLOUDY    18   7  62 S16       30.21F WCI   3
$$

ABBREVIATIONS USED IN REMARKS
   TC - TEMPERATURE IN CELSIUS
  WCI - WIND CHILL INDEX
   HX - HEAT INDEX
  VSB - VISIBILITY




USA.gov is the U.S. government's official web portal to all federal, state and local government web resources and services.